Location: Fazenda Monte Alegre
(4.8500°S, 38.0333°W)
Time: 17:07:41
(UTC+00:00)

Cosmos 1943 - Pass Details

Date: 24 September 2020
Orbit: 833 x 850 km, 71.0° (Epoch: 24 October)

Event Time Altitude Azimuth Distance (km) Brightness Sun altitude
Rises 21:53:33 0° 337° (NNW) 3,391 6.6 -22.3°
Reaches altitude 10° 21:56:01 10° 333° (NNW) 2,461 5.9 -22.9°
Maximum altitude 22:01:34 58° 255° (WSW) 982 3.7 -24.2°
Drops below altitude 10° 22:07:10 10° 176° (S) 2,479 5.6 -25.6°
Sets 22:09:40 0° 172° (S) 3,417 6.3 -26.3°
